Weather in Kuzema

Russia / Republic of Karelia     65°21′23″N   34°15′26″E
temp.,
°C
wind,
m/s
gust,
m/s
humid.,
%
clouds,
%
prec.,
mm/h
press.,
hPa
HPBL,
m
22 may, sun
sun2200:000ese587580 0.0 1019239
03:000ese357890 0.0 1019122
06:00+1ese4466100 0.0 1019604
09:00+3e446070 0.0 1018723
12:00+4e435564 0.0 1017710
15:00+4e445051 0.0 1017642
18:00+2e455515 0.0 1017561
21:00+1e347032 0.0 1016356
23 may, mon
mon2300:00−1e33845 0.0 101640
03:00−1nne33865 0.0 101653
06:00+1nne47705 0.0 1016483
09:00+4ne57490 0.0 1015686
12:00+6ne6738100 0.0 1014859
15:00+9ne783188 0.0 10131161
18:00+8nne7938100 0.0 10131006
21:00+4nne61056100 0.0 1013534
24 may, tue
tue2400:00+1nne5107098 0.0 1013360
03:00+1nne61076100 0.0 1014528
06:00+1nne7974100 0.0 1015554
09:00+3nne7972100 0.0 1015680
12:00+5ne6867100 0.0 1016769
15:00+6ne6766100 0.0 1016757
18:00+5ene4671100 0.0 1017528
21:00+3ese338621 0.0 1017169
25 may, wed
wed2500:00+2e229466 0.0 1018104
03:00+1nne129534 0.0 101852
06:00+3nne228533 0.0 1018282
09:00+6ne237154 0.0 1017670
12:00+7e436819 0.0 1016621
15:00+7e536610 0.0 1015480
18:00+6ese457068 0.0 1015367
21:00+4se467791 0.0 1014261
26 may, thu
thu2600:00+2se3690100 0.0 1014137
03:00+2ese3591100 0.0 1013168
06:00+3ese4484100 0.0 1012284
09:00+5ese4476100 0.0 1011570
12:00+6e547099 0.0 1010732
15:00+7e546642 0.0 1009755
18:00+6e55685 0.0 1008617
21:00+5e44815 0.0 1007297